Location: Madrid
(40.4000°N, 3.6830°W)
Time: 13:04:33
(UTC+01:00)

ISS - Pass Details

Date: 23 March 2019
Orbit: 408 x 411 km, 51.6° (Epoch: 24 March)

Event Time Altitude Azimuth Distance (km) Brightness Sun altitude
Rises 20:16:27 0° 232° (SW) 2,323 0.7 -9.7°
Reaches altitude 10° 20:18:31 10° 232° (SW) 1,466 -0.4 -10.1°
Maximum altitude 20:21:48 90° 271° (W) 412 -3.8 -10.7°
Drops below altitude 10° 20:25:07 10° 53° (NE) 1,472 -1.4 -11.3°
Enters shadow 20:25:17 - 53° (NE) 1,540 -1.3 -11.3°
